Location: Tamazert
(32.6352°N, 5.2072°W)
Time: 21:34:27
(UTC+00:00)

Transit 2A Rocket - Pass Details

Date: 11 October 2022
Orbit: 589 x 911 km, 66.7° (Epoch: 28 November)

Event Time Altitude Azimuth Distance (km) Brightness Sun altitude
Rises 03:03:02 0° 188° (S) 2,864 - -41.9°
Reaches altitude 10° 03:05:25 10° 180° (S) 1,937 - -41.5°
Maximum altitude 03:09:26 39° 111° (ESE) 885 - -40.7°
Drops below altitude 10° 03:13:25 10° 42° (NE) 1,919 - -39.9°
Exits shadow 03:14:08 - 39° (NE) 2,193 8.0 -39.8°
Sets 03:15:46 0° 35° (NE) 2,833 8.6 -39.5°
